SES-10 (42432 NORAD) Tracking and Keplerian Element Data

This shows tracking and keplerian element data for the satellite.

Feedback or suggestion? Click here.




ElementValue
Catalog42432
NameSES-10
Epoch Orbit1642
Epoch Day269.03799214
Epoch Year2021
RAAN200.5916
Inclination0.0137
Eccentricity0.0002669
Argument of Perigee355.6029
Mean Anonmoly115.6455
Mean Motion1.00270138
Decay Rate-2.75E-06
L11 42432U 17017A 21269.03799214 -.00000275 00000-0 00000+0 0 9990
L22 42432 0.0137 200.5916 0002669 355.6029 115.6455 1.00270138 16426

Live tracking and technical data element details for SES-10 (NORAD 42432). SES-10 can be tracked NOW for your location showing map with azimuth and elevation plus other details from your city location.

Track the satellite on the map from your city or location and see movement details for azimuth, elevation, latitude, longitude, range, height, and movement on the map or in text.







IsCatalogInMostPopularTable: catalog: 42432, numindb: 587
Update: records affected: 1



GetName: 42432 SES-10

Hit Count: updated at: Mon, 27 Sep 2021 01:25:44 GMT